KE2LU Weather Reports


time (UTC)temp
C
wind
direction
speed
KPH
gust
KPH
rain 1hr
cm
rain 24hr
cm
rain mn
cm
humidity
%
barometer
mb
20260504050503 11 220 0.0 1.6 0.00 0.00 0.00 62 1009.1
20260504050003 11 210 1.6 4.8 0.00 0.00 0.00 61 1009.1
20260504045503 11 211 1.6 4.8 0.00 0.00 0.00 61 1009.2
20260504045004 11 192 1.6 4.8 0.00 0.00 0.00 61 1009.1
20260504044503 11 236 3.2 4.8 0.00 0.00 0.00 60 1009.2
20260504044003 11 132 0.0 3.2 0.00 0.00 0.00 60 1009.1
20260504043503 11 222 1.6 4.8 0.00 0.00 0.00 60 1009.1
20260504043003 11 206 1.6 8.0 0.00 0.00 0.00 61 1009.1
20260504042503 11 164 1.6 8.0 0.00 0.00 0.00 61 1009.1
20260504042003 11 92 0.0 3.2 0.00 0.00 0.00 60 1009.1
20260504041503 11 241 1.6 4.8 0.00 0.00 0.00 60 1009.1
20260504040003 11 226 3.2 8.0 0.00 0.00 0.00 60 1009.2
20260504035003 11 245 3.2 14.5 0.00 0.00 0.00 61 1009.1
20260504034503 11 133 1.6 4.8 0.00 0.00 0.00 62 1009.1
20260504034003 11 233 1.6 4.8 0.00 0.00 0.00 63 1009.1
20260504033003 11 234 0.0 4.8 0.00 0.00 0.00 63 1009.2
20260504032503 11 207 0.0 0.0 0.00 0.00 0.00 64 1009.1
20260504032004 11 203 1.6 4.8 0.00 0.00 0.00 64 1009.2
20260504031503 11 118 0.0 1.6 0.00 0.00 0.00 64 1009.2
20260504031003 11 233 0.0 1.6 0.00 0.00 0.00 63 1009.3
20260504030503 11 243 0.0 1.6 0.00 0.00 0.00 63 1009.4
20260504030003 11 221 0.0 3.2 0.00 0.00 0.00 63 1009.4
20260504025503 11 158 0.0 4.8 0.00 0.00 0.00 62 1009.4
20260504025003 11 130 0.0 4.8 0.00 0.00 0.00 62 1009.4
20260504024504 11 232 1.6 8.0 0.00 0.00 0.00 63 1009.4
20260504024003 11 210 3.2 4.8 0.00 0.00 0.00 63 1009.5
20260504023504 11 189 1.6 8.0 0.00 0.00 0.00 64 1009.5
20260504023003 11 220 1.6 4.8 0.00 0.00 0.00 65 1009.6
20260504022503 11 253 1.6 4.8 0.00 0.00 0.00 66 1009.6
20260504021503 10 280 0.0 3.2 0.00 0.00 0.00 71 1009.7
20260504021003 10 255 1.6 9.7 0.00 0.00 0.00 71 1009.7
20260504020003 10 211 0.0 3.2 0.00 0.00 0.00 73 1009.7
20260504015503 10 219 0.0 1.6 0.00 0.00 0.00 74 1009.7
20260504015003 10 225 0.0 1.6 0.00 0.00 0.00 74 1009.7
20260504014503 10 123 0.0 8.0 0.00 0.00 0.00 74 1009.7
20260504014003 10 256 1.6 4.8 0.00 0.00 0.00 75 1009.7
20260504013503 10 228 3.2 9.7 0.00 0.00 0.00 77 1009.8
20260504013004 10 244 1.6 11.3 0.00 0.00 0.00 80 1010.0
20260504012503 9 263 1.6 12.9 0.00 0.00 0.00 83 1010.1
20260504011504 9 250 0.0 1.6 0.00 0.00 0.00 83 1010.3
20260504011003 9 252 0.0 3.2 0.00 0.00 0.00 82 1010.3
20260504010504 9 218 1.6 4.8 0.00 0.00 0.00 82 1010.3
20260504005504 10 260 1.6 12.9 0.00 0.00 0.00 82 1010.2
20260504005004 10 229 3.2 8.0 0.00 0.00 0.00 82 1010.2
20260504004503 10 228 0.0 3.2 0.00 0.00 0.00 81 1010.4
20260504004004 10 301 1.6 9.7 0.00 0.00 0.00 80 1010.5
20260504003503 10 282 4.8 11.3 0.00 0.00 0.00 79 1010.6
20260504003003 10 274 4.8 11.3 0.00 0.00 0.00 77 1010.7
20260504002504 10 260 4.8 12.9 0.00 0.00 0.00 75 1010.7
20260504002003 10 287 3.2 11.3 0.00 0.00 0.00 74 1010.5
20260504001503 10 284 3.2 4.8 0.00 0.00 0.00 73 1010.4
20260503235003 11 269 9.7 25.7 0.00 0.00 0.00 69 1010.5
20260503234503 11 289 9.7 24.1 0.00 0.00 0.00 66 1010.4
20260503234004 12 251 6.4 20.9 0.00 0.00 0.00 63 1010.3
20260503233504 12 281 8.0 14.5 0.00 0.00 0.00 57 1010.1
20260503232504 12 273 4.8 14.5 0.00 0.00 0.00 55 1009.9
20260503232004 12 241 8.0 24.1 0.00 0.00 0.00 54 1009.8
20260503231503 13 292 3.2 20.9 0.00 0.00 0.00 53 1009.8
20260503231003 13 201 6.4 16.1 0.00 0.00 0.00 51 1009.7
20260503230504 13 258 8.0 22.5 0.00 0.00 0.00 50 1009.7
20260503225503 13 251 9.7 27.4 0.00 0.00 0.00 49 1009.5
20260503225003 13 261 0.0 12.9 0.00 0.00 0.00 49 1009.5
20260503224503 13 234 8.0 20.9 0.00 0.00 0.00 49 1009.3
20260503224003 12 232 6.4 16.1 0.00 0.00 0.00 50 1009.4
20260503223504 12 202 3.2 16.1 0.00 0.00 0.00 52 1009.4
20260503222004 12 43 0.0 1.6 0.00 0.00 0.00 54 1009.5
20260503221504 12 354 3.2 8.0 0.00 0.00 0.00 54 1009.5
20260503221003 12 309 4.8 11.3 0.00 0.00 0.00 53 1009.9
20260503220504 12 330 4.8 11.3 0.00 0.00 0.00 52 1009.9
20260503220003 12 306 4.8 14.5 0.00 0.00 0.00 53 1009.9
20260503215503 13 311 9.7 20.9 0.00 0.00 0.00 50 1010.1
20260503215004 13 325 6.4 14.5 0.00 0.00 0.00 48 1010.2
20260503214504 13 300 11.3 25.7 0.00 0.00 0.00 46 1010.1
20260503213504 13 294 8.0 19.3 0.00 0.00 0.00 44 1009.8
20260503213003 13 291 4.8 19.3 0.00 0.00 0.00 44 1009.6
20260503212504 14 272 8.0 19.3 0.00 0.00 0.00 44 1009.5
20260503212004 14 279 8.0 14.5 0.00 0.00 0.00 43 1009.5
20260503211504 14 274 8.0 22.5 0.00 0.00 0.00 43 1009.3
20260503211004 14 303 4.8 19.3 0.00 0.00 0.00 43 1009.5
20260503210503 14 288 4.8 16.1 0.00 0.00 0.00 44 1009.5
20260503210004 14 293 9.7 20.9 0.00 0.00 0.00 42 1009.7
20260503205504 14 307 12.9 25.7 0.00 0.00 0.00 42 1009.7
20260503205004 15 281 8.0 20.9 0.00 0.00 0.00 40 1009.8
20260503204503 14 240 4.8 12.9 0.00 0.00 0.00 42 1009.8
20260503204004 14 222 4.8 24.1 0.00 0.00 0.00 41 1009.8
20260503203504 14 267 4.8 12.9 0.00 0.00 0.00 43 1009.9
20260503203003 14 261 9.7 19.3 0.00 0.00 0.00 40 1009.9
20260503202504 14 174 4.8 19.3 0.00 0.00 0.00 42 1010.0
20260503202004 14 267 3.2 12.9 0.00 0.00 0.00 41 1010.1
20260503201503 13 279 8.0 22.5 0.00 0.00 0.00 41 1010.1
20260503201004 13 267 8.0 20.9 0.00 0.00 0.00 40 1010.2
20260503200504 14 255 6.4 12.9 0.00 0.00 0.00 41 1010.2
20260503195504 13 237 12.9 25.7 0.00 0.00 0.00 40 1010.4
20260503195004 13 256 8.0 22.5 0.00 0.00 0.00 42 1010.5
20260503194004 14 244 9.7 29.0 0.00 0.00 0.00 41 1010.7
20260503193004 13 241 8.0 19.3 0.00 0.00 0.00 44 1011.0
20260503192004 13 235 9.7 19.3 0.00 0.00 0.00 42 1011.2
20260503191504 12 268 11.3 27.4 0.00 0.00 0.00 47 1011.4
20260503191004 12 238 6.4 12.9 0.00 0.00 0.00 48 1011.5
20260503190504 12 282 6.4 11.3 0.00 0.00 0.00 51 1011.5
20260503190004 12 281 3.2 11.3 0.00 0.00 0.00 52 1011.7
20260503185004 12 267 3.2 9.7 0.00 0.00 0.00 55 1011.9
20260503184504 12 316 3.2 9.7 0.00 0.00 0.00 57 1011.9
20260503183505 11 336 4.8 9.7 0.00 0.00 0.00 57 1012.1
20260503183004 11 344 4.8 9.7 0.00 0.00 0.00 55 1012.1
20260503182504 11 312 4.8 9.7 0.00 0.00 0.00 56 1012.1
20260503182005 11 333 9.7 16.1 0.00 0.00 0.00 53 1012.0
20260503181004 11 297 4.8 14.5 0.00 0.00 0.00 54 1012.1
20260503180005 11 356 9.7 19.3 0.00 0.00 0.00 54 1012.2
20260503175504 11 340 9.7 20.9 0.00 0.00 0.00 53 1012.3
20260503175004 11 343 8.0 12.9 0.00 0.00 0.00 57 1012.4
20260503174504 11 335 11.3 16.1 0.00 0.00 0.00 55 1012.3
20260503174004 11 313 9.7 19.3 0.00 0.00 0.00 55 1012.4
20260503173504 11 338 14.5 20.9 0.00 0.00 0.00 54 1012.4
20260503173004 11 315 8.0 14.5 0.00 0.00 0.00 53 1012.4
20260503172504 12 352 11.3 19.3 0.00 0.00 0.00 51 1012.4
20260503171504 12 293 8.0 20.9 0.00 0.00 0.00 50 1012.5
20260503171004 12 262 9.7 25.7 0.00 0.00 0.00 49 1012.4
20260503170504 12 231 6.4 14.5 0.00 0.00 0.00 48 1012.5
20260503151004 10 35 3.2 9.7 0.00 0.00 0.00 52 1013.8
20260503131004 7 334 4.8 9.7 0.00 0.03 0.00 54 1014.7
20260503130505 7 282 4.8 12.9 0.00 0.03 0.00 52 1014.8